Torna al catalogo

COSMOS 970 DEB

AttivoLEO
NORAD 10575·DEBRIS·🇷🇺 Russia

Lanciato Dec 21, 1977 da Baikonur Cosmodrome

Loading…

Prossimi Passaggi (prossime 24 ore)

TLE

AggiornatoSource: Space-Track

Epoca: Sep 14, 2026, 12:52 UTC

1 10575U 77121S   26257.53640729  .00000036  00000-0  14247-3 0  9994
2 10575  65.8771  78.1890 0108317  78.1569 316.1343 13.61394389417485

Traccia COSMOS 970 DEB in tempo reale con AllMySat

Download on the App Store